Weather History for KICL - April, 2013

Change the Weather History Date:

Friday, April 12, 2013

  Actual Average Record
Temperature  
Mean Temperature 34 °F -  
Max Temperature 41 °F 61 °F 84 °F (2014)
Min Temperature 28 °F 38 °F 28 °F (2012)
Degree Days  
Heating Degree Days 30    
Moisture  
Dew Point 28 °F    
Average Humidity 80    
Maximum Humidity 93    
Minimum Humidity 61    
Precipitation  
Precipitation 0.00 in - - ()
Sea Level Pressure  
Sea Level Pressure 29.86 in    
Wind  
Wind Speed 11 mph (WNW)    
Max Wind Speed 16 mph    
Max Gust Speed 23 mph    
Visibility 10 miles    
Events      
Averages and records for this station are not official NWS values.
T = Trace of Precipitation, MM = Missing Value Source: NWS Daily Summary

Daily Weather History Graph

Daily Weather History Graph

Search for Another Location

Airport or City:

Trip Planner

Search our weather history database for the weather conditions in past years. The results will help you decide how hot, cold, wet, or windy it might be!

Date:

Astronomy

Apr. 12, 2013 Rise Set
Actual Time 6:45 AM CDT 7:56 PM CDT
Civil Twilight 6:17 AM CDT 8:24 PM CDT
Nautical Twilight 5:43 AM CDT 8:58 PM CDT
Astronomical Twilight 5:08 AM CDT 9:34 PM CDT
Moon 7:55 AM CDT (4/12) 10:29 PM CDT (4/12)
Length of Visible Light 14h 07m
Length of Day
13h 11m
Waxing Crescent, 5% of the Moon is Illuminated
Apr 12
Waxing Crescent
Apr 18
First Quarter
Apr 25
Full
May 2
Last Quarter
May 9
New

Hourly Weather History & Observations

Time (CDT) Temp. Windchill Dew Point Humidity Pressure Visibility Wind Dir Wind Speed Gust Speed Precip Events Conditions
12:15 AM 32.0 °F 23.6 °F 26.6 °F 80% 29.71 in 10.0 mi West 10.4 mph 17.3 mph N/A   Overcast
12:35 AM 32.0 °F 23.6 °F 28.4 °F 87% 29.71 in 10.0 mi West 10.4 mph - N/A   Overcast
12:55 AM 30.2 °F 21.3 °F 26.6 °F 86% 29.72 in 10.0 mi West 10.4 mph 16.1 mph N/A   Overcast
1:15 AM 30.2 °F 23.4 °F 26.6 °F 86% 29.72 in 10.0 mi West 6.9 mph - N/A   Overcast
1:59 AM 30.2 °F 19.8 °F 26.6 °F 86% 29.73 in 10.0 mi WNW 13.8 mph - N/A   Overcast
2:55 AM 30.2 °F 20.2 °F 26.6 °F 86% 29.72 in 10.0 mi WNW 12.7 mph - N/A   Overcast
2:57 AM 30.2 °F 20.8 °F 26.6 °F 86% 29.72 in 10.0 mi WNW 11.5 mph - N/A   Overcast
3:15 AM 30.2 °F 19.8 °F 26.6 °F 86% 29.72 in 10.0 mi West 13.8 mph 17.3 mph N/A   Overcast
3:35 AM 30.2 °F 19.8 °F 26.6 °F 86% 29.72 in 10.0 mi WNW 13.8 mph 19.6 mph N/A   Overcast
3:55 AM 30.2 °F 19.8 °F 26.6 °F 86% 29.72 in 10.0 mi West 13.8 mph 17.3 mph N/A   Overcast
4:15 AM 30.2 °F 20.2 °F 26.6 °F 86% 29.72 in 10.0 mi West 12.7 mph 18.4 mph N/A   Overcast
4:35 AM 30.2 °F 20.8 °F 26.6 °F 86% 29.73 in 10.0 mi West 11.5 mph - N/A   Overcast
4:55 AM 30.2 °F 21.9 °F 26.6 °F 86% 29.74 in 10.0 mi West 9.2 mph - N/A   Overcast
5:15 AM 30.2 °F 21.9 °F 26.6 °F 86% 29.74 in 10.0 mi West 9.2 mph - N/A   Overcast
5:35 AM 30.2 °F 21.9 °F 28.4 °F 93% 29.75 in 10.0 mi WNW 9.2 mph 17.3 mph N/A   Overcast
5:55 AM 30.2 °F 21.9 °F 28.4 °F 93% 29.75 in 10.0 mi WNW 9.2 mph - N/A   Overcast
6:15 AM 30.2 °F 20.8 °F 28.4 °F 93% 29.75 in 10.0 mi WNW 11.5 mph 16.1 mph N/A   Overcast
6:35 AM 30.2 °F 21.9 °F 28.4 °F 93% 29.76 in 10.0 mi WNW 9.2 mph - N/A   Overcast
6:55 AM 30.2 °F 20.8 °F 28.4 °F 93% 29.76 in 10.0 mi WNW 11.5 mph - N/A   Overcast
7:15 AM 30.2 °F 22.6 °F 28.4 °F 93% 29.77 in 10.0 mi WNW 8.1 mph - N/A   Overcast
7:35 AM 32.0 °F 23.6 °F 28.4 °F 87% 29.78 in 10.0 mi WNW 10.4 mph - N/A   Overcast
7:55 AM 32.0 °F 23.6 °F 28.4 °F 87% 29.79 in 10.0 mi WNW 10.4 mph - N/A   Overcast
8:15 AM 32.0 °F 22.5 °F 28.4 °F 87% 29.80 in 10.0 mi WNW 12.7 mph 17.3 mph N/A   Overcast
8:35 AM 32.0 °F 23.0 °F 28.4 °F 87% 29.81 in 10.0 mi WNW 11.5 mph 17.3 mph N/A   Overcast
8:55 AM 32.0 °F 23.0 °F 30.2 °F 93% 29.82 in 7.0 mi West 11.5 mph - N/A   Overcast
9:15 AM 32.0 °F 24.2 °F 30.2 °F 93% 29.84 in 3.0 mi WNW 9.2 mph - N/A   Drizzle
9:55 AM 32.0 °F 21.6 °F 30.2 °F 93% 29.84 in 5.0 mi WNW 15.0 mph - N/A   Overcast
10:15 AM 33.8 °F 25.8 °F 30.2 °F 87% 29.86 in 10.0 mi NW 10.4 mph 19.6 mph N/A   Overcast
10:35 AM 32.0 °F 23.0 °F 30.2 °F 93% 29.86 in 3.0 mi NW 11.5 mph 20.7 mph N/A   Drizzle
10:55 AM 32.0 °F 23.0 °F 30.2 °F 93% 29.87 in 5.0 mi NW 11.5 mph 19.6 mph N/A   Light Drizzle
11:15 AM 33.8 °F 23.5 °F 30.2 °F 87% 29.88 in 10.0 mi NW 16.1 mph 20.7 mph N/A   Overcast
11:35 AM 33.8 °F 24.8 °F 30.2 °F 87% 29.88 in 10.0 mi NW 12.7 mph 20.7 mph N/A   Overcast
11:55 AM 33.8 °F 24.8 °F 28.4 °F 81% 29.89 in 10.0 mi NW 12.7 mph 18.4 mph N/A   Overcast
12:15 PM 35.6 °F 27.5 °F 28.4 °F 75% 29.89 in 10.0 mi NW 11.5 mph 17.3 mph N/A   Overcast
12:35 PM 35.6 °F 28.0 °F 30.2 °F 81% 29.89 in 10.0 mi NW 10.4 mph - N/A   Overcast
12:55 PM 35.6 °F 26.6 °F 30.2 °F 81% 29.90 in 10.0 mi WNW 13.8 mph 17.3 mph N/A   Overcast
1:15 PM 37.4 °F 29.8 °F 30.2 °F 75% 29.90 in 10.0 mi West 11.5 mph - N/A   Overcast
1:35 PM 37.4 °F 28.5 °F 28.4 °F 70% 29.90 in 10.0 mi West 15.0 mph 19.6 mph N/A   Overcast
1:55 PM 37.4 °F 29.8 °F 28.4 °F 70% 29.91 in 10.0 mi West 11.5 mph - N/A   Overcast
2:15 PM 37.4 °F 28.9 °F 28.4 °F 70% 29.91 in 10.0 mi West 13.8 mph - N/A   Overcast
2:35 PM 37.4 °F 29.3 °F 28.4 °F 70% 29.92 in 10.0 mi West 12.7 mph - N/A   Overcast
2:55 PM 37.4 °F 28.5 °F 28.4 °F 70% 29.92 in 10.0 mi WNW 15.0 mph - N/A   Overcast
3:15 PM 37.4 °F 29.3 °F 28.4 °F 70% 29.92 in 10.0 mi WNW 12.7 mph 16.1 mph N/A   Overcast
3:35 PM 39.2 °F 31.6 °F 28.4 °F 65% 29.92 in 10.0 mi West 12.7 mph - N/A   Overcast
3:55 PM 39.2 °F 33.6 °F 28.4 °F 65% 29.92 in 10.0 mi West 8.1 mph - N/A   Overcast
4:15 PM 41.0 °F 33.9 °F 28.4 °F 61% 29.92 in 10.0 mi West 12.7 mph 19.6 mph N/A   Overcast
4:35 PM 39.2 °F 33.0 °F 30.2 °F 70% 29.92 in 10.0 mi WNW 9.2 mph - N/A   Overcast
4:55 PM 39.2 °F 30.8 °F 28.4 °F 65% 29.92 in 10.0 mi WNW 15.0 mph 18.4 mph N/A   Mostly Cloudy
5:15 PM 41.0 °F 33.5 °F 28.4 °F 61% 29.92 in 10.0 mi WNW 13.8 mph - N/A   Overcast
5:35 PM 41.0 °F 33.5 °F 30.2 °F 65% 29.93 in 10.0 mi West 13.8 mph - N/A   Overcast
5:55 PM 41.0 °F 33.9 °F 30.2 °F 65% 29.93 in 10.0 mi WNW 12.7 mph 17.3 mph N/A   Mostly Cloudy
6:15 PM 39.2 °F 32.5 °F 28.4 °F 65% 29.93 in 10.0 mi NW 10.4 mph 15.0 mph N/A   Mostly Cloudy
6:35 PM 39.2 °F 32.0 °F 28.4 °F 65% 29.93 in 10.0 mi WNW 11.5 mph 20.7 mph N/A   Mostly Cloudy
6:55 PM 39.2 °F 30.8 °F 28.4 °F 65% 29.94 in 10.0 mi WNW 15.0 mph 23.0 mph N/A   Scattered Clouds
7:15 PM 39.2 °F 33.0 °F 28.4 °F 65% 29.94 in 10.0 mi WNW 9.2 mph - N/A   Mostly Cloudy
7:35 PM 37.4 °F 30.3 °F 28.4 °F 70% 29.94 in 10.0 mi WNW 10.4 mph 16.1 mph N/A   Overcast
7:55 PM 37.4 °F 31.4 °F 28.4 °F 70% 29.95 in 10.0 mi WNW 8.1 mph - N/A   Overcast
8:15 PM 37.4 °F 32.1 °F 28.4 °F 70% 29.96 in 10.0 mi WNW 6.9 mph - N/A   Overcast
8:35 PM 37.4 °F 31.4 °F 28.4 °F 70% 29.96 in 10.0 mi WNW 8.1 mph 16.1 mph N/A   Overcast
8:55 PM 35.6 °F 30.7 °F 28.4 °F 75% 29.96 in 10.0 mi NW 5.8 mph - N/A   Mostly Cloudy
9:15 PM 35.6 °F 30.7 °F 28.4 °F 75% 29.97 in 10.0 mi NNW 5.8 mph - N/A   Scattered Clouds
9:35 PM 33.8 °F 28.6 °F 28.4 °F 81% 29.98 in 10.0 mi NNW 5.8 mph - N/A   Mostly Cloudy
9:55 PM 32.0 °F 26.4 °F 26.6 °F 80% 29.99 in 10.0 mi NNW 5.8 mph - N/A   Scattered Clouds
10:15 PM 30.2 °F 24.3 °F 26.6 °F 86% 30.00 in 10.0 mi NNW 5.8 mph - N/A   Clear
10:35 PM 30.2 °F 25.4 °F 26.6 °F 86% 30.00 in 10.0 mi NNW 4.6 mph - N/A   Clear
10:55 PM 30.2 °F 26.7 °F 26.6 °F 86% 30.00 in 10.0 mi NNW 3.5 mph - N/A   Clear
11:15 PM 30.2 °F 26.7 °F 24.8 °F 80% 30.00 in 10.0 mi NNW 3.5 mph - N/A   Clear
11:35 PM 28.4 °F - 26.6 °F 93% 30.00 in 10.0 mi Calm Calm - N/A   Clear
11:55 PM 30.2 °F 26.7 °F 24.8 °F 80% 30.01 in 10.0 mi NNW 3.5 mph - N/A   Clear